{"data":{"norad_id":59223,"intl_designator":"2024-046Y","name":"STARLINK-31420","alt_names":[],"object_type":"PAYLOAD","status":"ACTIVE","operator":null,"country":"US","launch_date":"2024-03-11","launch_site_code":"AFWTR","launch_vehicle":null,"mission":null,"orbit_class":"UNKNOWN","rcs_meters":null,"size_class":null,"mass_kg":null,"dimensions":null,"purposes":["comms"],"wikipedia_slug":null,"has_3d_model":false,"image_url":null,"decayed_at":null,"tle_current":{"epoch":"2026-09-20T10:10:31.714752Z","epoch_age_seconds":165423,"freshness":"FRESH","line1":"1 59223U 24046Y   26263.42397818  .00001209  00000+0  46907-4 0  9999","line2":"2 59223  53.1617 330.1494 0001193  94.9951 265.1188 15.34396805142856","mean_motion":15.34396805,"eccentricity":0.0001193,"inclination_deg":53.1617,"raan_deg":330.1494,"arg_perigee_deg":94.9951,"mean_anomaly_deg":265.1188,"bstar":4.6907e-5,"rev_number":14285,"period_min":93.847953495967,"perigee_km":461.89662306334,"apogee_km":463.52884981046,"semimajor_km":6840.8497364369,"source":"CELESTRAK","updated_at":"2026-09-21T09:00:34.073692Z"}}}